Weather History for Shannon, Ireland

Change the Weather History Date:

Tuesday, March 4, 2014

  Actual Average Record
Temperature  
Mean Temperature 45 °F -  
Max Temperature 50 °F 52 °F 57 °F (2003)
Min Temperature 39 °F 38 °F 21 °F (2006)
Degree Days  
Heating Degree Days 20    
Moisture  
Dew Point 39 °F    
Average Humidity 84    
Maximum Humidity 100    
Minimum Humidity 57    
Precipitation  
Precipitation 0.01 in 0.09 in - ()
Sea Level Pressure  
Sea Level Pressure 29.63 in    
Wind  
Wind Speed 7 mph ()    
Max Wind Speed 13 mph    
Max Gust Speed -    
Visibility 8.5 miles    
Events Rain    
Averages and records for this station are not official NWS values.
T = Trace of Precipitation, MM = Missing Value Source: Averaged Metar Reports

Daily Weather History Graph

Daily Weather History Graph

Search for Another Location

Airport:

Trip Planner

Search our weather history database for the weather conditions in past years. The results will help you decide how hot, cold, wet, or windy it might be!

Date:

Astronomy

Mar. 04, 2014 Rise Set
Actual Time 7:15 AM GMT 6:19 PM GMT
Civil Twilight 6:41 AM GMT 6:54 PM GMT
Nautical Twilight 6:02 AM GMT 7:33 PM GMT
Astronomical Twilight 5:21 AM GMT 8:14 PM GMT
Moon 8:23 AM GMT (3/4) 10:48 PM GMT (3/4)
Length of Visible Light 12h 12m
Length of Day
11h 03m
Waxing Crescent, 13% of the Moon is Illuminated
Mar 4
Waxing Crescent
Mar 8
First Quarter
Mar 16
Full
Mar 24
Last Quarter
Mar 30
New

Hourly Weather History & Observations

Time (GMT) Temp. Windchill Dew Point Humidity Pressure Visibility Wind Dir Wind Speed Gust Speed Precip Events Conditions
12:00 AM 43 °F - 39 °F 79% 29.55 in 12 mi West 13.4 mph - -   Partly Cloudy
12:00 AM 42.8 °F 36.2 °F 39.2 °F 87% 29.53 in 6.2 mi West 12.7 mph - N/A   Partly Cloudy
12:30 AM 42.8 °F 37.0 °F 39.2 °F 87% 29.53 in 6.2 mi WSW 10.4 mph - N/A   Partly Cloudy
1:00 AM 42 °F - 38 °F 82% 29.55 in 12 mi West 11.2 mph - -  
1:00 AM 41.0 °F 34.3 °F 39.2 °F 93% 29.53 in - West 11.5 mph - N/A   Clear
1:30 AM 42.8 °F 37.0 °F 39.2 °F 87% 29.53 in 6.2 mi West 10.4 mph - N/A   Partly Cloudy
2:00 AM 41 °F - 38 °F 85% 29.55 in 12 mi WSW 8.9 mph - - Rain Light Rain Showers
2:00 AM 41.0 °F 35.8 °F 37.4 °F 87% 29.53 in 6.2 mi WSW 8.1 mph - N/A   Partly Cloudy
2:30 AM 42.8 °F 37.5 °F 39.2 °F 87% 29.53 in 6.2 mi WSW 9.2 mph - N/A   Partly Cloudy
3:00 AM 41 °F - 38 °F 85% 29.55 in 12 mi WSW 8.9 mph - -   Partly Cloudy
3:00 AM 41.0 °F 35.8 °F 37.4 °F 87% 29.53 in 6.2 mi WSW 8.1 mph - N/A   Partly Cloudy
3:30 AM 41.0 °F 38.0 °F 39.2 °F 93% 29.53 in 6.2 mi SW 4.6 mph - N/A   Partly Cloudy
4:00 AM 41 °F - 39 °F 89% 29.54 in 12 mi SSW 4.5 mph - -   Scattered Clouds
4:00 AM 41.0 °F 39.0 °F 39.2 °F 93% 29.53 in 6.2 mi SSW 3.5 mph - N/A   Partly Cloudy
4:30 AM 41.0 °F - 39.2 °F 93% 29.53 in 6.2 mi SW 2.3 mph - N/A   Partly Cloudy
5:00 AM 42 °F - 40 °F 88% 29.55 in 12 mi South 4.5 mph - -   Partly Cloudy
5:00 AM 41.0 °F 39.0 °F 39.2 °F 93% 29.53 in 6.2 mi South 3.5 mph - N/A   Scattered Clouds
5:30 AM 41.0 °F 37.1 °F 39.2 °F 93% 29.53 in 6.2 mi South 5.8 mph - N/A   Partly Cloudy
6:00 AM 40 °F - 39 °F 94% 29.55 in 12 mi South 6.7 mph - - Rain Light Rain Showers
6:00 AM 41.0 °F 36.4 °F 39.2 °F 93% 29.53 in 6.2 mi South 6.9 mph - N/A   Mostly Cloudy
6:30 AM 41.0 °F 36.4 °F 39.2 °F 93% 29.53 in 6.2 mi South 6.9 mph - N/A   Mostly Cloudy
7:00 AM 41 °F - 39 °F 92% 29.55 in 12 mi South 8.9 mph - -   Mostly Cloudy
7:00 AM 41.0 °F 35.8 °F 39.2 °F 93% 29.53 in 6.2 mi South 8.1 mph - N/A   Mostly Cloudy
7:30 AM 41.0 °F 36.4 °F 39.2 °F 93% 29.53 in 6.2 mi South 6.9 mph - N/A   Mostly Cloudy
8:00 AM 42 °F - 39 °F 86% 29.54 in 12 mi SSW 6.7 mph - -   Overcast
8:00 AM 41.0 °F 37.1 °F 39.2 °F 93% 29.53 in 6.2 mi SSW 5.8 mph - N/A   Mostly Cloudy
8:30 AM 42.8 °F 41.1 °F 39.2 °F 87% 29.53 in 6.2 mi SSW 3.5 mph - N/A   Mostly Cloudy
9:00 AM 42 °F - 39 °F 85% 29.55 in 12 mi SSW 4.5 mph - -   Overcast
9:00 AM 42.8 °F 41.1 °F 39.2 °F 87% 29.53 in 6.2 mi SSW 3.5 mph - N/A   Mostly Cloudy
9:30 AM 42.8 °F - 39.2 °F 87% 29.53 in 6.2 mi South 2.3 mph - N/A   Mostly Cloudy
10:00 AM 43 °F - 40 °F 85% 29.56 in 9 mi ESE 6.7 mph - -   Overcast
10:00 AM 42.8 °F 39.3 °F 39.2 °F 87% 29.53 in 6.2 mi ESE 5.8 mph - N/A   Mostly Cloudy
10:30 AM 42.8 °F 39.3 °F 41.0 °F 93% 29.53 in 6.2 mi SSW 5.8 mph - N/A Rain Light Rain
11:00 AM 44 °F - 41 °F 86% 29.56 in 9 mi SSW 4.5 mph - - Rain Light Rain
11:00 AM 42.8 °F 40.1 °F 41.0 °F 93% 29.53 in 6.2 mi SSW 4.6 mph - N/A Rain Light Rain
11:30 AM 44.6 °F 41.4 °F 41.0 °F 87% 29.53 in 6.2 mi SSW 5.8 mph - N/A   Mostly Cloudy
12:00 PM 47 °F - 40 °F 68% 29.57 in 12 mi SE 4.5 mph - - Rain Light Rain
12:00 PM 48.2 °F - 39.2 °F 71% 29.56 in 6.2 mi SE 3.5 mph - N/A   Scattered Clouds
12:30 PM 48.2 °F - 39.2 °F 71% 29.56 in 6.2 mi South 4.6 mph - N/A   Mostly Cloudy
1:00 PM 49 °F - - % 29.58 in 12 mi South 4.5 mph - - Rain Light Rain
1:00 PM 48.2 °F - 41.0 °F 76% 29.56 in 6.2 mi South 4.6 mph - N/A   Mostly Cloudy
1:30 PM 50.0 °F - 41.0 °F 71% 29.56 in 6.2 mi South 2.3 mph - N/A   Mostly Cloudy
2:00 PM 49 °F - 40 °F 62% 29.62 in 12 mi West 6.7 mph - -   Partly Cloudy
2:00 PM 50.0 °F - 39.2 °F 66% 29.59 in 6.2 mi West 5.8 mph - N/A   Mostly Cloudy
2:30 PM 48.2 °F - 39.2 °F 71% 29.62 in 6.2 mi WSW 4.6 mph - N/A   Mostly Cloudy
3:00 PM 49 °F - 40 °F 61% 29.64 in 12 mi WSW 2.2 mph - -   Mostly Cloudy
3:00 PM 48.2 °F - 39.2 °F 71% 29.62 in 6.2 mi WSW 2.3 mph - N/A   Mostly Cloudy
3:30 PM 50.0 °F - 41.0 °F 71% 29.62 in 6.2 mi NNE 6.9 mph - N/A   Mostly Cloudy
4:00 PM 49 °F - 39 °F 59% 29.67 in 25 mi NW 4.5 mph - -   Mostly Cloudy
4:00 PM 50.0 °F - 39.2 °F 66% 29.65 in 6.2 mi NW 4.6 mph - N/A   Scattered Clouds
4:30 PM 50.0 °F - 41.0 °F 71% 29.68 in 6.2 mi WNW 5.8 mph - N/A   Scattered Clouds
5:00 PM 49 °F - 38 °F 57% 29.70 in 25 mi WNW 8.9 mph - -   Scattered Clouds
5:00 PM 48.2 °F - 39.2 °F 71% 29.68 in 6.2 mi WNW 8.1 mph - N/A   Partly Cloudy
5:30 PM 46.4 °F 42.4 °F 39.2 °F 76% 29.71 in 6.2 mi WNW 8.1 mph - N/A   Partly Cloudy
6:00 PM 46 °F - 39 °F 69% 29.75 in 19 mi WNW 6.7 mph - -   Partly Cloudy
6:00 PM 46.4 °F 42.9 °F 39.2 °F 76% 29.74 in 6.2 mi WNW 6.9 mph - N/A   Partly Cloudy
6:30 PM 44.6 °F 43.1 °F 39.2 °F 81% 29.74 in 6.2 mi WNW 3.5 mph - N/A   Scattered Clouds
7:00 PM 43 °F - 38 °F 78% 29.78 in 19 mi West 4.5 mph - -   Scattered Clouds
7:00 PM 42.8 °F 41.1 °F 39.2 °F 87% 29.77 in 6.2 mi West 3.5 mph - N/A   Partly Cloudy
7:30 PM 42.8 °F 40.1 °F 39.2 °F 87% 29.77 in 6.2 mi West 4.6 mph - N/A   Partly Cloudy
8:00 PM 42 °F - 39 °F 86% 29.81 in 16 mi SSW 6.7 mph - -   Scattered Clouds
8:00 PM 41.0 °F 37.1 °F 39.2 °F 93% 29.80 in 6.2 mi SSW 5.8 mph - N/A   Partly Cloudy
8:30 PM 42.8 °F 41.1 °F 39.2 °F 87% 29.83 in 6.2 mi WSW 3.5 mph - N/A   Partly Cloudy
9:00 PM 42 °F - 39 °F 87% 29.86 in 16 mi WSW 6.7 mph - -  
9:00 PM 41.0 °F 37.1 °F 39.2 °F 93% 29.86 in - WSW 5.8 mph - N/A   Clear
9:30 PM 41.0 °F 37.1 °F 39.2 °F 93% 29.86 in - SW 5.8 mph - N/A   Clear
10:00 PM 42 °F - 40 °F 89% 29.88 in 12 mi SW 6.7 mph - -  
10:00 PM 41.0 °F 36.4 °F 39.2 °F 93% 29.86 in - SW 6.9 mph - N/A   Clear
10:30 PM 41.0 °F - 41.0 °F 100% 29.89 in - Variable 1.2 mph - N/A   Clear
11:00 PM 41 °F - 39 °F 91% 29.88 in 11 mi South 4.5 mph - -  
11:00 PM 41.0 °F 39.0 °F 39.2 °F 93% 29.86 in - SSE 3.5 mph - N/A   Clear
11:30 PM 39.2 °F 35.9 °F 39.2 °F 100% 29.86 in - South 4.6 mph - N/A   Clear